Location: ?ejeti?ky
(50.4060°N, 14.9016°E)
Time: 10:29:44
(UTC+00:00)

STARLINK-1282 - Pass Details

Date: 02 October 2020
Orbit: 549 x 550 km, 53.0° (Epoch: 21 October)

Event Time Altitude Azimuth Distance (km) Brightness Sun altitude
Exits shadow 04:15:21 - 220° (SW) 2,551 6.6 -8.4°
Reaches altitude 10° 04:17:16 10° 213° (SSW) 1,817 5.9 -8.0°
Maximum altitude 04:21:07 39° 145° (SE) 840 4.9 -7.4°
Drops below altitude 10° 04:24:58 10° 76° (ENE) 1,826 7.9 -6.8°
Sets 04:27:18 0° 69° (ENE) 2,723 8.8 -6.5°
